Regional Weather Roundup
Issued by NWS

Home | Current Version | Previous Version | Text Only | Print | Product List | Glossary Off
Versions: 1 2 3 4 5 6 7 8 9 10 11 12 13 14 15 16 17 18 19 20 21 22 23 24 25 26 27 28 29 30 31 32 33 34 35 36 37 38 39 40 41 42 43 44 45 46 47 48 49 50

173
ASUS45 KSLC 260010
RWRUT

UTAH REGIONAL WEATHER ROUNDUP
NATIONAL WEATHER SERVICE SALT LAKE CITY UT
500 PM MST SAT FEB 25 2017

UTZ001>011-023>025-260100-

NORTHERN UTAH

CITY           SKY/WX    TMP DP  RH WIND       PRES   REMARKS
BRIGHAM CITY     N/A     30  19  65 N7        30.01F WCI  23
HILL AFB       PTSUNNY   30  19  64 W9        29.98S WCI  22
LOGAN          SUNNY     29  19  66 CALM      29.99F
OGDEN          FLURRIES  30  18  60 W7        29.98F WCI  23
SALT LAKE CITY PTSUNNY   32  20  61 N6        30.01F WCI  26
TOOELE VALLEY  PTSUNNY   32  19  59 CALM      30.01F
WENDOVER       PTSUNNY   36  12  38 SE6       29.99F WCI  31
HEBER CITY     CLOUDY    23  16  74 CALM      29.93S
WEST JORDAN    CLOUDY    32  27  82 CALM      30.01S

$$

UTZ011>015-024>027-260100-

CENTRAL/NORTHEAST UTAH

CITY           SKY/WX    TMP DP  RH WIND       PRES   REMARKS
PROVO AIRPORT  MOSUNNY   28  16  60 S5        30.01F WCI  23
MOAB/CANYONLAN PTSUNNY   41   8  25 W12G26    29.90F
DELTA          CLOUDY    34  18  51 NE6       29.98S WCI  29
PRICE          MOSUNNY   30  12  47 W12       29.90F WCI  20
ROOSEVELT      SUNNY     30  18  59 CALM      29.94S
VERNAL         SUNNY     26  14  60 NE5       29.91F WCI  20

$$

UTZ013>016-019>022-027-260100-

SOUTHERN UTAH

CITY           SKY/WX    TMP DP  RH WIND       PRES   REMARKS
BRYCE CANYON   FLURRIES  26  15  63 NW8       29.89F WCI  18
CEDAR CITY     CLOUDY    37  14  38 SW12      29.90F WCI  29
MILFORD        CLOUDY    37  19  48 NE7       29.93F WCI  32
ST GEORGE      PTCLDY    50  18  28 NW8       29.97
HANKSVILLE     PTSUNNY   41   9  26 NW6       29.93F
BLANDING       PTSUNNY   37   7  28 W15       29.97F WCI  27

$$

REGIONAL REPORTS     COLORADO/ARIZONA

CITY           SKY/WX    TMP DP  RH WIND       PRES   REMARKS
CRAIG, CO      CLOUDY    22  12  65 W16       29.87F WCI   8
GRAND JUNCTION CLOUDY    37  10  32 VRB3      29.90F
RIFLE, CO      CLOUDY    33   9  36 W17G25    29.88F WCI  22
MONTROSE, CO   CLOUDY    35   4  27 N13       29.90F WCI  26
CORTEZ, CO     CLOUDY    36   6  28 NW9       29.91F WCI  29
COLORADO CITY    N/A     43  18  36 W9        29.97S
PAGE, AZ       SUNNY     47   5  18 E6        29.90F
GRAND CANYON   CLOUDY    37  10  32 VRB7      29.94S WCI  32
KINGMAN, AZ    PTSUNNY   53  -2  10 SW15      29.97F
FLAGSTAFF, AZ  CLOUDY    37   7  28 SW18G29   29.94F WCI  27

$$

REGIONAL REPORTS    NEVADA/IDAHO/WYOMING

CITY           SKY/WX    TMP DP  RH WIND       PRES   REMARKS
LAS VEGAS, NV  CLOUDY    52  16  24 NE6       29.95F
ELY, NY        CLOUDY    28  17  63 N10       29.94S WCI  19
ELKO, NV       MOSUNNY   32  12  43 W10       29.98F WCI  24
POCATELLO, ID  MOSUNNY   23  14  68 W13       29.99F WCI  11
BURLEY, ID     MIX PCPN  31  12  45 W15       29.99F WCI  20
FORT BRIDGER,  CLOUDY    18  13  82 W18       29.88S WCI   2
EVANSTON, WY   LGT SNOW  16   9  74 W14       29.87S WCI   2
ROCK SPRINGS,  MOSUNNY   17  10  74 W18G28    29.83R WCI   1

$$




USA.gov is the U.S. government's official web portal to all federal, state and local government web resources and services.